| time (UTC) | temp C | wind direction | speed KPH | gust KPH | rain 1hr cm | rain 24hr cm | rain mn cm | humidity % | barometer mb |
| 20260902235144 | 25 | 68 | 14.5 | 17.7 | 0.00 | 0.00 | 0.00 | 52 | 1010.9 |
| 20260902234637 | 25 | 67 | 17.7 | 24.1 | 0.00 | 0.00 | 0.00 | 53 | 1011.1 |
| 20260902234136 | 26 | 97 | 12.9 | 14.5 | 0.00 | 0.00 | 0.00 | 54 | 1011.1 |
| 20260902233632 | 26 | 62 | 11.3 | 12.9 | 0.00 | 0.00 | 0.00 | 55 | 1010.9 |
| 20260902233126 | 26 | 99 | 16.1 | 20.9 | 0.00 | 0.00 | 0.00 | 54 | 1010.9 |
| 20260902232625 | 26 | 101 | 20.9 | 27.4 | 0.00 | 0.00 | 0.00 | 53 | 1010.9 |
| 20260902232125 | 26 | 141 | 9.7 | 11.3 | 0.00 | 0.00 | 0.00 | 52 | 1010.9 |
| 20260902231624 | 26 | 60 | 11.3 | 16.1 | 0.00 | 0.00 | 0.00 | 52 | 1010.7 |
| 20260902231124 | 26 | 91 | 14.5 | 17.7 | 0.00 | 0.00 | 0.00 | 52 | 1010.8 |
| 20260902230620 | 26 | 75 | 12.9 | 14.5 | 0.00 | 0.00 | 0.00 | 53 | 1010.9 |
| 20260902230118 | 27 | 90 | 16.1 | 22.5 | 0.00 | 0.00 | 0.00 | 52 | 1011.1 |
| 20260902225614 | 27 | 143 | 20.9 | 22.5 | 0.00 | 0.00 | 0.00 | 52 | 1010.8 |
| 20260902225113 | 27 | 92 | 11.3 | 16.1 | 0.00 | 0.00 | 0.00 | 53 | 1011.1 |
| 20260902224612 | 27 | 81 | 20.9 | 29.0 | 0.00 | 0.00 | 0.00 | 51 | 1010.9 |
| 20260902224108 | 27 | 87 | 14.5 | 16.1 | 0.00 | 0.00 | 0.00 | 52 | 1010.9 |
| 20260902223604 | 27 | 80 | 20.9 | 27.4 | 0.00 | 0.00 | 0.00 | 51 | 1010.9 |
| 20260902223103 | 27 | 140 | 11.3 | 12.9 | 0.00 | 0.00 | 0.00 | 52 | 1010.8 |
| 20260902222601 | 26 | 94 | 14.5 | 16.1 | 0.00 | 0.00 | 0.00 | 54 | 1010.9 |
| 20260902222100 | 26 | 103 | 6.4 | 11.3 | 0.00 | 0.00 | 0.00 | 54 | 1010.9 |
| 20260902221555 | 27 | 102 | 9.7 | 14.5 | 0.00 | 0.00 | 0.00 | 53 | 1010.9 |
| 20260902221050 | 27 | 47 | 14.5 | 17.7 | 0.00 | 0.00 | 0.00 | 51 | 1011.3 |
| 20260902220545 | 27 | 87 | 14.5 | 14.5 | 0.00 | 0.00 | 0.00 | 50 | 1010.9 |
| 20260902220040 | 27 | 101 | 11.3 | 12.9 | 0.00 | 0.00 | 0.00 | 51 | 1011.1 |
| 20260902215537 | 27 | 78 | 12.9 | 17.7 | 0.00 | 0.00 | 0.00 | 51 | 1010.9 |
| 20260902215032 | 27 | 78 | 14.5 | 17.7 | 0.00 | 0.00 | 0.00 | 51 | 1011.1 |
| 20260902214531 | 27 | 108 | 14.5 | 17.7 | 0.00 | 0.00 | 0.00 | 53 | 1011.1 |
| 20260902214031 | 27 | 122 | 14.5 | 17.7 | 0.00 | 0.00 | 0.00 | 53 | 1011.1 |
| 20260902213527 | 27 | 124 | 9.7 | 11.3 | 0.00 | 0.00 | 0.00 | 53 | 1011.3 |
| 20260902213025 | 27 | 99 | 9.7 | 11.3 | 0.00 | 0.00 | 0.00 | 52 | 1011.3 |
| 20260902212522 | 27 | 78 | 12.9 | 16.1 | 0.00 | 0.00 | 0.00 | 52 | 1011.3 |
| 20260902212017 | 28 | 108 | 16.1 | 22.5 | 0.00 | 0.00 | 0.00 | 50 | 1011.2 |
| 20260902211514 | 27 | 76 | 12.9 | 17.7 | 0.00 | 0.00 | 0.00 | 50 | 1011.3 |
| 20260902211009 | 27 | 107 | 14.5 | 17.7 | 0.00 | 0.00 | 0.00 | 50 | 1011.4 |
| 20260902210508 | 28 | 82 | 12.9 | 14.5 | 0.00 | 0.00 | 0.00 | 50 | 1011.3 |
| 20260902210008 | 27 | 122 | 12.9 | 17.7 | 0.00 | 0.00 | 0.00 | 51 | 1011.2 |
| 20260902205501 | 27 | 149 | 14.5 | 17.7 | 0.00 | 0.00 | 0.00 | 49 | 1011.4 |
| 20260902204957 | 27 | 77 | 14.5 | 20.9 | 0.00 | 0.00 | 0.00 | 49 | 1011.5 |
| 20260902204456 | 27 | 116 | 17.7 | 20.9 | 0.00 | 0.00 | 0.00 | 50 | 1011.6 |
| 20260902203952 | 27 | 68 | 12.9 | 17.7 | 0.00 | 0.00 | 0.00 | 51 | 1011.7 |
| 20260902203448 | 27 | 103 | 11.3 | 16.1 | 0.00 | 0.00 | 0.00 | 51 | 1011.6 |
| 20260902202946 | 27 | 82 | 14.5 | 17.7 | 0.00 | 0.00 | 0.00 | 50 | 1011.7 |
| 20260902202443 | 27 | 103 | 16.1 | 17.7 | 0.00 | 0.00 | 0.00 | 51 | 1011.6 |
| 20260902201940 | 27 | 90 | 16.1 | 17.7 | 0.00 | 0.00 | 0.00 | 51 | 1012.0 |
| 20260902201434 | 26 | 94 | 11.3 | 14.5 | 0.00 | 0.00 | 0.00 | 53 | 1011.9 |
| 20260902200929 | 26 | 108 | 12.9 | 14.5 | 0.00 | 0.00 | 0.00 | 52 | 1012.2 |
| 20260902200424 | 26 | 101 | 11.3 | 14.5 | 0.00 | 0.00 | 0.00 | 52 | 1012.2 |
| 20260902195919 | 27 | 75 | 11.3 | 14.5 | 0.00 | 0.00 | 0.00 | 51 | 1012.1 |
| 20260902195414 | 27 | 120 | 9.7 | 11.3 | 0.00 | 0.00 | 0.00 | 51 | 1012.1 |
| 20260902194909 | 27 | 112 | 17.7 | 20.9 | 0.00 | 0.00 | 0.00 | 50 | 1012.2 |
| 20260902194408 | 27 | 101 | 11.3 | 11.3 | 0.00 | 0.00 | 0.00 | 50 | 1012.2 |
| 20260902193903 | 27 | 122 | 16.1 | 20.9 | 0.00 | 0.00 | 0.00 | 50 | 1012.3 |
| 20260902193400 | 27 | 99 | 14.5 | 16.1 | 0.00 | 0.00 | 0.00 | 50 | 1012.2 |
| 20260902192858 | 27 | 106 | 11.3 | 14.5 | 0.00 | 0.00 | 0.00 | 50 | 1012.4 |
| 20260902192357 | 27 | 120 | 6.4 | 8.0 | 0.00 | 0.00 | 0.00 | 51 | 1012.4 |
| 20260902191856 | 27 | 78 | 9.7 | 14.5 | 0.00 | 0.00 | 0.00 | 50 | 1012.4 |
| 20260902191352 | 27 | 101 | 8.0 | 9.7 | 0.00 | 0.00 | 0.00 | 51 | 1012.5 |
| 20260902190842 | 26 | 136 | 11.3 | 14.5 | 0.00 | 0.00 | 0.00 | 51 | 1012.7 |
| 20260902190341 | 26 | 114 | 14.5 | 14.5 | 0.00 | 0.00 | 0.00 | 50 | 1012.9 |
| 20260902185837 | 26 | 109 | 12.9 | 14.5 | 0.00 | 0.00 | 0.00 | 51 | 1012.9 |
| 20260902185332 | 26 | 82 | 8.0 | 9.7 | 0.00 | 0.00 | 0.00 | 53 | 1013.0 |
| 20260902184828 | 26 | 68 | 14.5 | 17.7 | 0.00 | 0.00 | 0.00 | 52 | 1012.9 |
| 20260902184323 | 26 | 58 | 12.9 | 16.1 | 0.00 | 0.00 | 0.00 | 51 | 1012.9 |
| 20260902183818 | 26 | 148 | 11.3 | 16.1 | 0.00 | 0.00 | 0.00 | 51 | 1013.1 |
| 20260902183314 | 26 | 144 | 14.5 | 16.1 | 0.00 | 0.00 | 0.00 | 50 | 1013.3 |
| 20260902182810 | 26 | 120 | 17.7 | 22.5 | 0.00 | 0.00 | 0.00 | 50 | 1013.4 |
| 20260902182307 | 26 | 70 | 12.9 | 14.5 | 0.00 | 0.00 | 0.00 | 50 | 1012.9 |
| 20260902181803 | 26 | 165 | 17.7 | 20.9 | 0.00 | 0.00 | 0.00 | 51 | 1013.4 |
| 20260902181258 | 26 | 86 | 9.7 | 12.9 | 0.00 | 0.00 | 0.00 | 52 | 1013.5 |
| 20260902180752 | 26 | 82 | 14.5 | 16.1 | 0.00 | 0.00 | 0.00 | 51 | 1013.5 |
| 20260902180248 | 26 | 135 | 17.7 | 22.5 | 0.00 | 0.00 | 0.00 | 50 | 1013.2 |
| 20260902175743 | 26 | 130 | 14.5 | 20.9 | 0.00 | 0.00 | 0.00 | 50 | 1013.5 |
| 20260902175239 | 26 | 155 | 11.3 | 12.9 | 0.00 | 0.00 | 0.00 | 51 | 1013.5 |
| 20260902174734 | 26 | 101 | 17.7 | 22.5 | 0.00 | 0.00 | 0.00 | 52 | 1013.7 |
| 20260902174230 | 25 | 77 | 11.3 | 14.5 | 0.00 | 0.00 | 0.00 | 53 | 1013.5 |
| 20260902173725 | 25 | 78 | 14.5 | 16.1 | 0.00 | 0.00 | 0.00 | 52 | 1013.8 |
| 20260902173220 | 25 | 133 | 9.7 | 11.3 | 0.00 | 0.00 | 0.00 | 54 | 1013.8 |
| 20260902172715 | 25 | 137 | 14.5 | 16.1 | 0.00 | 0.00 | 0.00 | 54 | 1013.9 |
| 20260902172214 | 25 | 122 | 11.3 | 12.9 | 0.00 | 0.00 | 0.00 | 55 | 1013.8 |
| 20260902171709 | 24 | 144 | 11.3 | 14.5 | 0.00 | 0.00 | 0.00 | 56 | 1013.8 |
| 20260902171205 | 25 | 184 | 17.7 | 22.5 | 0.00 | 0.00 | 0.00 | 55 | 1014.0 |
| 20260902170701 | 25 | 133 | 12.9 | 14.5 | 0.00 | 0.00 | 0.00 | 57 | 1013.9 |
| 20260902170156 | 24 | 105 | 8.0 | 9.7 | 0.00 | 0.00 | 0.00 | 57 | 1014.0 |
| 20260902165650 | 24 | 151 | 11.3 | 14.5 | 0.00 | 0.00 | 0.00 | 58 | 1014.2 |
| 20260902165144 | 23 | 89 | 16.1 | 20.9 | 0.00 | 0.00 | 0.00 | 58 | 1014.0 |
| 20260902164640 | 23 | 113 | 11.3 | 12.9 | 0.00 | 0.00 | 0.00 | 61 | 1014.0 |
| 20260902164139 | 23 | 94 | 12.9 | 14.5 | 0.00 | 0.00 | 0.00 | 59 | 1014.2 |
| 20260902163634 | 23 | 120 | 11.3 | 12.9 | 0.00 | 0.00 | 0.00 | 60 | 1014.1 |
| 20260902163134 | 23 | 112 | 9.7 | 11.3 | 0.00 | 0.00 | 0.00 | 59 | 1014.2 |
| 20260902162632 | 23 | 143 | 12.9 | 16.1 | 0.00 | 0.00 | 0.00 | 60 | 1013.9 |
| 20260902162126 | 23 | 132 | 12.9 | 12.9 | 0.00 | 0.00 | 0.00 | 60 | 1014.2 |
| 20260902161622 | 23 | 158 | 14.5 | 17.7 | 0.00 | 0.00 | 0.00 | 61 | 1014.2 |
| 20260902161118 | 23 | 144 | 14.5 | 20.9 | 0.00 | 0.00 | 0.00 | 62 | 1014.3 |
| 20260902160608 | 22 | 150 | 14.5 | 17.7 | 0.00 | 0.00 | 0.00 | 61 | 1014.2 |
| 20260902155555 | 22 | 165 | 6.4 | 9.7 | 0.00 | 0.00 | 0.00 | 63 | 1014.3 |
| 20260902155054 | 23 | 118 | 8.0 | 11.3 | 0.00 | 0.00 | 0.00 | 64 | 1014.2 |
| 20260902154550 | 22 | 114 | 16.1 | 17.7 | 0.00 | 0.00 | 0.00 | 64 | 1014.3 |
| 20260902154045 | 22 | 149 | 11.3 | 12.9 | 0.00 | 0.00 | 0.00 | 65 | 1014.2 |
| 20260902153543 | 22 | 102 | 9.7 | 11.3 | 0.00 | 0.00 | 0.00 | 67 | 1014.3 |
| 20260902153039 | 22 | 139 | 11.3 | 16.1 | 0.00 | 0.00 | 0.00 | 67 | 1014.3 |
| 20260902152535 | 21 | 122 | 11.3 | 14.5 | 0.00 | 0.00 | 0.00 | 68 | 1014.5 |
| 20260902152030 | 21 | 75 | 12.9 | 14.5 | 0.00 | 0.00 | 0.00 | 69 | 1014.1 |
| 20260902151526 | 21 | 133 | 8.0 | 11.3 | 0.00 | 0.00 | 0.00 | 70 | 1014.2 |
| 20260902151025 | 21 | 146 | 8.0 | 11.3 | 0.00 | 0.00 | 0.00 | 70 | 1014.1 |
| 20260902150521 | 21 | 117 | 9.7 | 16.1 | 0.00 | 0.00 | 0.00 | 71 | 1014.3 |
| 20260902150016 | 21 | 106 | 11.3 | 12.9 | 0.00 | 0.00 | 0.00 | 71 | 1014.4 |
| 20260902145510 | 21 | 118 | 8.0 | 11.3 | 0.00 | 0.00 | 0.00 | 72 | 1014.5 |
| 20260902145005 | 21 | 119 | 8.0 | 11.3 | 0.00 | 0.00 | 0.00 | 72 | 1014.8 |
| 20260902144502 | 20 | 89 | 9.7 | 11.3 | 0.00 | 0.00 | 0.00 | 72 | 1014.5 |
| 20260902143956 | 20 | 118 | 12.9 | 16.1 | 0.00 | 0.00 | 0.00 | 72 | 1014.6 |
| 20260902143451 | 20 | 109 | 11.3 | 14.5 | 0.00 | 0.00 | 0.00 | 72 | 1014.6 |
| 20260902142947 | 20 | 97 | 8.0 | 9.7 | 0.00 | 0.00 | 0.00 | 74 | 1014.9 |
| 20260902142442 | 20 | 153 | 12.9 | 16.1 | 0.00 | 0.00 | 0.00 | 74 | 1014.6 |
| 20260902141937 | 20 | 130 | 8.0 | 9.7 | 0.00 | 0.00 | 0.00 | 75 | 1014.5 |
| 20260902141433 | 20 | 124 | 11.3 | 12.9 | 0.00 | 0.00 | 0.00 | 75 | 1014.6 |
| 20260902140932 | 20 | 82 | 8.0 | 11.3 | 0.00 | 0.00 | 0.00 | 76 | 1014.5 |
| 20260902140427 | 20 | 102 | 11.3 | 11.3 | 0.00 | 0.00 | 0.00 | 76 | 1014.8 |
| 20260902135922 | 20 | 90 | 4.8 | 4.8 | 0.00 | 0.00 | 0.00 | 76 | 1014.6 |
| 20260902135418 | 19 | 136 | 8.0 | 9.7 | 0.00 | 0.00 | 0.00 | 76 | 1014.5 |
| 20260902134916 | 18 | 108 | 4.8 | 4.8 | 0.00 | 0.00 | 0.00 | 79 | 1014.5 |
| 20260902134412 | 18 | 67 | 6.4 | 9.7 | 0.00 | 0.00 | 0.00 | 79 | 1014.5 |
| 20260902133907 | 18 | 114 | 4.8 | 4.8 | 0.00 | 0.00 | 0.00 | 79 | 1014.6 |
| 20260902133407 | 18 | 128 | 4.8 | 4.8 | 0.00 | 0.00 | 0.00 | 78 | 1014.6 |
| 20260902132902 | 18 | 141 | 4.8 | 8.0 | 0.00 | 0.00 | 0.00 | 78 | 1014.6 |
| 20260902132357 | 18 | 104 | 6.4 | 8.0 | 0.00 | 0.00 | 0.00 | 77 | 1014.5 |
| 20260902131852 | 18 | 109 | 4.8 | 9.7 | 0.00 | 0.00 | 0.00 | 77 | 1014.4 |
| 20260902131349 | 18 | 119 | 6.4 | 8.0 | 0.00 | 0.00 | 0.00 | 79 | 1014.8 |
| 20260902130848 | 17 | 90 | 6.4 | 8.0 | 0.00 | 0.00 | 0.00 | 81 | 1014.6 |
| 20260902130344 | 17 | 99 | 4.8 | 4.8 | 0.00 | 0.00 | 0.00 | 83 | 1014.5 |
| 20260902125838 | 16 | 98 | 3.2 | 3.2 | 0.00 | 0.00 | 0.00 | 84 | 1014.5 |
| 20260902125334 | 16 | 112 | 4.8 | 4.8 | 0.00 | 0.00 | 0.00 | 86 | 1014.5 |
| 20260902124831 | 16 | 125 | 4.8 | 4.8 | 0.00 | 0.00 | 0.00 | 86 | 1014.4 |
| 20260902124326 | 16 | 110 | 6.4 | 8.0 | 0.00 | 0.00 | 0.00 | 86 | 1014.6 |
| 20260902123821 | 16 | 81 | 6.4 | 8.0 | 0.00 | 0.00 | 0.00 | 85 | 1014.5 |
| 20260902123318 | 15 | 86 | 8.0 | 8.0 | 0.00 | 0.00 | 0.00 | 85 | 1014.0 |
| 20260902122816 | 15 | 78 | 6.4 | 8.0 | 0.00 | 0.00 | 0.00 | 85 | 1014.3 |
| 20260902122313 | 15 | 78 | 3.2 | 3.2 | 0.00 | 0.00 | 0.00 | 86 | 1014.5 |
| 20260902121812 | 15 | 74 | 1.6 | 3.2 | 0.00 | 0.00 | 0.00 | 86 | 1014.2 |
| 20260902121307 | 15 | 95 | 1.6 | 1.6 | 0.00 | 0.00 | 0.00 | 86 | 1014.3 |
| 20260902120803 | 15 | 105 | 1.6 | 1.6 | 0.00 | 0.00 | 0.00 | 86 | 1014.3 |
| 20260902120259 | 15 | 104 | 1.6 | 3.2 | 0.00 | 0.00 | 0.00 | 85 | 1014.3 |
| 20260902115753 | 15 | 91 | 4.8 | 4.8 | 0.00 | 0.00 | 0.00 | 85 | 1014.1 |
| 20260902115249 | 15 | 84 | 6.4 | 8.0 | 0.00 | 0.00 | 0.00 | 85 | 1014.4 |
| 20260902114745 | 15 | 123 | 4.8 | 4.8 | 0.00 | 0.00 | 0.00 | 84 | 1014.3 |
| 20260902114241 | 15 | 120 | 4.8 | 4.8 | 0.00 | 0.00 | 0.00 | 83 | 1014.1 |
| 20260902113736 | 15 | 106 | 6.4 | 8.0 | 0.00 | 0.00 | 0.00 | 83 | 1013.9 |
| 20260902113231 | 15 | 85 | 8.0 | 11.3 | 0.00 | 0.00 | 0.00 | 84 | 1014.2 |
| 20260902112730 | 15 | 96 | 6.4 | 8.0 | 0.00 | 0.00 | 0.00 | 85 | 1014.1 |
| 20260902112228 | 15 | 111 | 4.8 | 8.0 | 0.00 | 0.00 | 0.00 | 84 | 1014.3 |
| 20260902111723 | 15 | 112 | 4.8 | 4.8 | 0.00 | 0.00 | 0.00 | 84 | 1014.3 |
| 20260902111219 | 15 | 111 | 3.2 | 3.2 | 0.00 | 0.00 | 0.00 | 83 | 1014.3 |
| 20260902110714 | 15 | 81 | 4.8 | 4.8 | 0.00 | 0.00 | 0.00 | 83 | 1014.1 |
| 20260902110210 | 16 | 77 | 6.4 | 8.0 | 0.00 | 0.00 | 0.00 | 82 | 1014.0 |
| 20260902105710 | 16 | 68 | 8.0 | 11.3 | 0.00 | 0.00 | 0.00 | 82 | 1014.0 |
| 20260902105205 | 16 | 70 | 8.0 | 9.7 | 0.00 | 0.00 | 0.00 | 82 | 1013.9 |
| 20260902104701 | 16 | 69 | 6.4 | 8.0 | 0.00 | 0.00 | 0.00 | 82 | 1014.1 |
| 20260902104157 | 15 | 77 | 4.8 | 4.8 | 0.00 | 0.00 | 0.00 | 82 | 1014.2 |
| 20260902103655 | 15 | 72 | 3.2 | 3.2 | 0.00 | 0.00 | 0.00 | 82 | 1014.1 |
| 20260902103151 | 15 | 79 | 0.0 | 1.6 | 0.00 | 0.00 | 0.00 | 82 | 1014.2 |
| 20260902102647 | 16 | 112 | 0.0 | 1.6 | 0.00 | 0.00 | 0.00 | 80 | 1014.1 |
| 20260902102144 | 16 | 97 | 4.8 | 4.8 | 0.00 | 0.00 | 0.00 | 79 | 1014.1 |
| 20260902101639 | 16 | 76 | 4.8 | 4.8 | 0.00 | 0.00 | 0.00 | 78 | 1014.3 |
| 20260902101138 | 16 | 74 | 4.8 | 4.8 | 0.00 | 0.00 | 0.00 | 78 | 1013.9 |
| 20260902100633 | 15 | 53 | 3.2 | 3.2 | 0.00 | 0.00 | 0.00 | 81 | 1014.0 |
| 20260902100128 | 15 | 108 | 0.0 | 0.0 | 0.00 | 0.00 | 0.00 | 82 | 1014.1 |
| 20260902095627 | 16 | 152 | 0.0 | 0.0 | 0.00 | 0.00 | 0.00 | 81 | 1014.1 |
| 20260902095126 | 16 | 61 | 1.6 | 1.6 | 0.00 | 0.00 | 0.00 | 80 | 1014.0 |
| 20260902094621 | 16 | 64 | 3.2 | 3.2 | 0.00 | 0.00 | 0.00 | 79 | 1014.0 |
| 20260902094118 | 16 | 62 | 3.2 | 3.2 | 0.00 | 0.00 | 0.00 | 79 | 1014.2 |
| 20260902093612 | 16 | 58 | 4.8 | 4.8 | 0.00 | 0.00 | 0.00 | 79 | 1013.9 |
| 20260902093106 | 17 | 66 | 4.8 | 4.8 | 0.00 | 0.00 | 0.00 | 78 | 1014.1 |
| 20260902092601 | 17 | 69 | 3.2 | 4.8 | 0.00 | 0.00 | 0.00 | 77 | 1013.9 |
| 20260902092056 | 17 | 62 | 4.8 | 4.8 | 0.00 | 0.00 | 0.00 | 78 | 1014.0 |
| 20260902091551 | 16 | 58 | 4.8 | 4.8 | 0.00 | 0.00 | 0.00 | 79 | 1014.0 |
| 20260902091047 | 16 | 76 | 3.2 | 3.2 | 0.00 | 0.00 | 0.00 | 79 | 1014.3 |
| 20260902090542 | 16 | 83 | 4.8 | 4.8 | 0.00 | 0.00 | 0.00 | 79 | 1014.1 |
| 20260902090042 | 16 | 77 | 3.2 | 3.2 | 0.00 | 0.00 | 0.00 | 81 | 1014.4 |
| 20260902085536 | 16 | 93 | 1.6 | 1.6 | 0.00 | 0.00 | 0.00 | 80 | 1014.6 |
| 20260902085031 | 16 | 94 | 3.2 | 3.2 | 0.00 | 0.00 | 0.00 | 79 | 1014.5 |
| 20260902084522 | 16 | 84 | 1.6 | 1.6 | 0.00 | 0.00 | 0.00 | 80 | 1014.5 |
| 20260902084017 | 17 | 81 | 1.6 | 1.6 | 0.00 | 0.00 | 0.00 | 78 | 1014.5 |
| 20260902083513 | 17 | 102 | 1.6 | 3.2 | 0.00 | 0.00 | 0.00 | 78 | 1014.4 |
| 20260902083007 | 17 | 114 | 3.2 | 3.2 | 0.00 | 0.00 | 0.00 | 78 | 1014.6 |
| 20260902082503 | 17 | 76 | 4.8 | 4.8 | 0.00 | 0.00 | 0.00 | 78 | 1014.4 |
| 20260902081959 | 17 | 62 | 4.8 | 4.8 | 0.00 | 0.00 | 0.00 | 78 | 1014.4 |
| 20260902081456 | 16 | 58 | 3.2 | 3.2 | 0.00 | 0.00 | 0.00 | 78 | 1014.5 |
| 20260902080954 | 16 | 72 | 1.6 | 1.6 | 0.00 | 0.00 | 0.00 | 78 | 1014.4 |
| 20260902080451 | 16 | 77 | 1.6 | 3.2 | 0.00 | 0.00 | 0.00 | 78 | 1014.3 |
| 20260902075950 | 16 | 72 | 3.2 | 3.2 | 0.00 | 0.00 | 0.00 | 78 | 1014.3 |
| 20260902075447 | 17 | 67 | 4.8 | 4.8 | 0.00 | 0.00 | 0.00 | 77 | 1014.4 |
| 20260902074942 | 17 | 50 | 4.8 | 4.8 | 0.00 | 0.00 | 0.00 | 77 | 1014.3 |
| 20260902074438 | 17 | 63 | 4.8 | 4.8 | 0.00 | 0.00 | 0.00 | 77 | 1014.4 |
| 20260902073933 | 17 | 62 | 4.8 | 4.8 | 0.00 | 0.00 | 0.00 | 77 | 1014.2 |
| 20260902073429 | 17 | 67 | 3.2 | 3.2 | 0.00 | 0.00 | 0.00 | 77 | 1014.4 |
| 20260902072925 | 17 | 64 | 6.4 | 8.0 | 0.00 | 0.00 | 0.00 | 76 | 1014.4 |
| 20260902072420 | 17 | 72 | 6.4 | 8.0 | 0.00 | 0.00 | 0.00 | 75 | 1014.8 |
| 20260902071917 | 17 | 99 | 4.8 | 4.8 | 0.00 | 0.00 | 0.00 | 75 | 1015.0 |
| 20260902071416 | 17 | 72 | 4.8 | 4.8 | 0.00 | 0.00 | 0.00 | 75 | 1014.9 |
| 20260902070913 | 17 | 123 | 6.4 | 8.0 | 0.00 | 0.00 | 0.00 | 75 | 1014.5 |
| 20260902070408 | 17 | 118 | 8.0 | 8.0 | 0.00 | 0.00 | 0.00 | 76 | 1014.9 |
| 20260902065906 | 17 | 103 | 4.8 | 4.8 | 0.00 | 0.00 | 0.00 | 75 | 1014.9 |
| 20260902065356 | 17 | 117 | 6.4 | 8.0 | 0.00 | 0.00 | 0.00 | 75 | 1014.8 |
| 20260902064851 | 17 | 94 | 4.8 | 4.8 | 0.00 | 0.00 | 0.00 | 75 | 1014.6 |
| 20260902064347 | 17 | 104 | 4.8 | 4.8 | 0.00 | 0.00 | 0.00 | 74 | 1014.8 |
| 20260902063842 | 17 | 115 | 8.0 | 9.7 | 0.00 | 0.00 | 0.00 | 74 | 1014.8 |
| 20260902063336 | 17 | 101 | 8.0 | 9.7 | 0.00 | 0.00 | 0.00 | 74 | 1014.5 |
| 20260902062830 | 16 | 108 | 4.8 | 4.8 | 0.00 | 0.00 | 0.00 | 76 | 1014.4 |
| 20260902062325 | 16 | 91 | 1.6 | 1.6 | 0.00 | 0.00 | 0.00 | 76 | 1014.4 |
| 20260902061825 | 16 | 81 | 1.6 | 3.2 | 0.00 | 0.00 | 0.00 | 76 | 1014.4 |
| 20260902061320 | 16 | 126 | 3.2 | 3.2 | 0.00 | 0.00 | 0.00 | 76 | 1014.5 |
| 20260902060817 | 16 | 100 | 1.6 | 3.2 | 0.00 | 0.00 | 0.00 | 77 | 1014.4 |
| 20260902060312 | 16 | 91 | 3.2 | 3.2 | 0.00 | 0.00 | 0.00 | 75 | 1014.6 |
| 20260902055808 | 17 | 75 | 4.8 | 4.8 | 0.00 | 0.00 | 0.00 | 74 | 1014.5 |
| 20260902055307 | 17 | 73 | 3.2 | 3.2 | 0.00 | 0.00 | 0.00 | 75 | 1014.4 |
| 20260902054759 | 17 | 89 | 4.8 | 4.8 | 0.00 | 0.00 | 0.00 | 74 | 1014.5 |
| 20260902054254 | 17 | 114 | 4.8 | 4.8 | 0.00 | 0.00 | 0.00 | 73 | 1014.5 |
| 20260902053750 | 17 | 87 | 3.2 | 3.2 | 0.00 | 0.00 | 0.00 | 72 | 1014.6 |
| 20260902053249 | 18 | 71 | 6.4 | 8.0 | 0.00 | 0.00 | 0.00 | 71 | 1014.5 |
| 20260902052748 | 18 | 55 | 4.8 | 4.8 | 0.00 | 0.00 | 0.00 | 70 | 1014.3 |
| 20260902052244 | 18 | 63 | 4.8 | 4.8 | 0.00 | 0.00 | 0.00 | 70 | 1014.4 |
| 20260902051743 | 18 | 60 | 4.8 | 4.8 | 0.00 | 0.00 | 0.00 | 69 | 1014.5 |
| 20260902051238 | 18 | 62 | 4.8 | 4.8 | 0.00 | 0.00 | 0.00 | 69 | 1014.5 |
| 20260902050732 | 18 | 66 | 6.4 | 9.7 | 0.00 | 0.00 | 0.00 | 70 | 1014.5 |
| 20260902050222 | 18 | 70 | 6.4 | 8.0 | 0.00 | 0.00 | 0.00 | 70 | 1014.5 |
| 20260902045723 | 18 | 81 | 4.8 | 8.0 | 0.00 | 0.00 | 0.00 | 70 | 1014.5 |
| 20260902045219 | 18 | 65 | 8.0 | 8.0 | 0.00 | 0.00 | 0.00 | 69 | 1014.4 |
| 20260902044714 | 18 | 72 | 4.8 | 4.8 | 0.00 | 0.00 | 0.00 | 69 | 1014.6 |
| 20260902044209 | 18 | 100 | 4.8 | 8.0 | 0.00 | 0.00 | 0.00 | 67 | 1014.9 |
| 20260902043659 | 18 | 119 | 6.4 | 8.0 | 0.00 | 0.00 | 0.00 | 67 | 1014.8 |
| 20260902043154 | 18 | 89 | 4.8 | 4.8 | 0.00 | 0.00 | 0.00 | 67 | 1014.6 |
| 20260902042653 | 18 | 80 | 4.8 | 4.8 | 0.00 | 0.00 | 0.00 | 66 | 1014.6 |
| 20260902042148 | 18 | 102 | 4.8 | 4.8 | 0.00 | 0.00 | 0.00 | 68 | 1014.9 |
| 20260902041648 | 18 | 75 | 4.8 | 4.8 | 0.00 | 0.00 | 0.00 | 69 | 1015.0 |
| 20260902041142 | 18 | 81 | 4.8 | 4.8 | 0.00 | 0.00 | 0.00 | 68 | 1014.6 |
| 20260902040642 | 18 | 76 | 6.4 | 8.0 | 0.00 | 0.00 | 0.00 | 67 | 1014.4 |
| 20260902040137 | 18 | 66 | 4.8 | 4.8 | 0.00 | 0.00 | 0.00 | 67 | 1015.0 |
| 20260902035635 | 18 | 79 | 1.6 | 3.2 | 0.00 | 0.00 | 0.00 | 69 | 1014.9 |
| 20260902035131 | 19 | 76 | 3.2 | 4.8 | 0.00 | 0.00 | 0.00 | 67 | 1014.9 |
| 20260902034630 | 19 | 74 | 4.8 | 4.8 | 0.00 | 0.00 | 0.00 | 66 | 1014.8 |
| 20260902034125 | 19 | 83 | 6.4 | 8.0 | 0.00 | 0.00 | 0.00 | 66 | 1014.8 |
| 20260902033625 | 19 | 69 | 4.8 | 4.8 | 0.00 | 0.00 | 0.00 | 66 | 1014.9 |
| 20260902033119 | 19 | 82 | 3.2 | 3.2 | 0.00 | 0.00 | 0.00 | 66 | 1014.8 |
| 20260902032618 | 20 | 80 | 4.8 | 4.8 | 0.00 | 0.00 | 0.00 | 64 | 1014.9 |
| 20260902032112 | 20 | 70 | 4.8 | 4.8 | 0.00 | 0.00 | 0.00 | 63 | 1014.6 |
| 20260902031607 | 20 | 70 | 4.8 | 4.8 | 0.00 | 0.00 | 0.00 | 63 | 1014.5 |
| 20260902031104 | 20 | 76 | 6.4 | 8.0 | 0.00 | 0.00 | 0.00 | 62 | 1014.6 |
| 20260902030603 | 20 | 71 | 6.4 | 8.0 | 0.00 | 0.00 | 0.00 | 62 | 1014.5 |
| 20260902030058 | 20 | 88 | 4.8 | 4.8 | 0.00 | 0.00 | 0.00 | 63 | 1014.9 |
| 20260902025557 | 20 | 79 | 4.8 | 4.8 | 0.00 | 0.00 | 0.00 | 64 | 1014.8 |
| 20260902025047 | 19 | 63 | 6.4 | 8.0 | 0.00 | 0.00 | 0.00 | 64 | 1015.0 |
| 20260902024542 | 20 | 76 | 4.8 | 4.8 | 0.00 | 0.00 | 0.00 | 66 | 1015.0 |
| 20260902024037 | 20 | 79 | 3.2 | 3.2 | 0.00 | 0.00 | 0.00 | 65 | 1014.8 |
| 20260902023533 | 20 | 69 | 4.8 | 4.8 | 0.00 | 0.00 | 0.00 | 66 | 1014.9 |
| 20260902023027 | 20 | 64 | 3.2 | 3.2 | 0.00 | 0.00 | 0.00 | 67 | 1014.6 |
| 20260902022522 | 20 | 60 | 4.8 | 8.0 | 0.00 | 0.00 | 0.00 | 67 | 1014.6 |
| 20260902022018 | 20 | 74 | 3.2 | 3.2 | 0.00 | 0.00 | 0.00 | 67 | 1014.8 |
| 20260902021513 | 20 | 67 | 3.2 | 3.2 | 0.00 | 0.00 | 0.00 | 66 | 1014.6 |
| 20260902021008 | 20 | 71 | 3.2 | 3.2 | 0.00 | 0.00 | 0.00 | 67 | 1014.6 |
| 20260902020504 | 20 | 95 | 3.2 | 4.8 | 0.00 | 0.00 | 0.00 | 69 | 1014.5 |
| 20260902015959 | 20 | 100 | 1.6 | 3.2 | 0.00 | 0.00 | 0.00 | 69 | 1014.8 |
| 20260902015455 | 20 | 102 | 3.2 | 3.2 | 0.00 | 0.00 | 0.00 | 70 | 1014.4 |
| 20260902014950 | 20 | 104 | 1.6 | 3.2 | 0.00 | 0.00 | 0.00 | 69 | 1014.5 |
| 20260902014447 | 20 | 87 | 1.6 | 1.6 | 0.00 | 0.00 | 0.00 | 69 | 1014.5 |
| 20260902013947 | 20 | 87 | 4.8 | 4.8 | 0.00 | 0.00 | 0.00 | 67 | 1014.3 |
| 20260902013441 | 20 | 74 | 3.2 | 3.2 | 0.00 | 0.00 | 0.00 | 67 | 1014.3 |
| 20260902012936 | 20 | 73 | 1.6 | 3.2 | 0.00 | 0.00 | 0.00 | 67 | 1014.5 |
| 20260902012432 | 21 | 90 | 1.6 | 1.6 | 0.00 | 0.00 | 0.00 | 65 | 1014.5 |
| 20260902011928 | 21 | 75 | 1.6 | 1.6 | 0.00 | 0.00 | 0.00 | 65 | 1014.5 |
| 20260902011422 | 21 | 91 | 1.6 | 1.6 | 0.00 | 0.00 | 0.00 | 66 | 1014.4 |
| 20260902010916 | 21 | 107 | 3.2 | 3.2 | 0.00 | 0.00 | 0.00 | 65 | 1014.6 |
| 20260902010412 | 21 | 95 | 1.6 | 3.2 | 0.00 | 0.00 | 0.00 | 66 | 1014.6 |
| 20260902005910 | 21 | 95 | 1.6 | 3.2 | 0.00 | 0.00 | 0.00 | 66 | 1014.5 |
| 20260902005410 | 22 | 87 | 1.6 | 1.6 | 0.00 | 0.00 | 0.00 | 67 | 1014.8 |
| 20260902004906 | 22 | 86 | 1.6 | 1.6 | 0.00 | 0.00 | 0.00 | 67 | 1014.6 |
| 20260902004405 | 22 | 79 | 3.2 | 3.2 | 0.00 | 0.00 | 0.00 | 63 | 1014.5 |
| 20260902003901 | 22 | 73 | 1.6 | 1.6 | 0.00 | 0.00 | 0.00 | 63 | 1014.6 |
| 20260902003356 | 22 | 74 | 1.6 | 1.6 | 0.00 | 0.00 | 0.00 | 62 | 1014.9 |
| 20260902002852 | 22 | 62 | 1.6 | 1.6 | 0.00 | 0.00 | 0.00 | 61 | 1014.6 |
| 20260902002350 | 22 | 75 | 1.6 | 1.6 | 0.00 | 0.00 | 0.00 | 61 | 1014.3 |
| 20260902001846 | 22 | 73 | 0.0 | 0.0 | 0.00 | 0.00 | 0.00 | 60 | 1014.8 |
| 20260902001341 | 23 | 63 | 1.6 | 1.6 | 0.00 | 0.00 | 0.00 | 61 | 1014.5 |
| 20260902000836 | 23 | 79 | 3.2 | 3.2 | 0.00 | 0.00 | 0.00 | 59 | 1014.6 |
| 20260902000337 | 23 | 74 | 0.0 | 0.0 | 0.00 | 0.00 | 0.00 | 59 | 1014.9 |
| 20260901235831 | 23 | 96 | 0.0 | 0.0 | 0.00 | 0.00 | 0.00 | 57 | 1014.8 |